Regional Weather Roundup
Issued by NWS

Home | Current Version | Previous Version | Graphics & Text | Print | Product List | Glossary On
Versions: 1 2 3 4 5 6 7 8 9 10 11 12 13 14 15 16 17 18 19 20 21 22 23 24 25 26 27 28 29 30 31 32 33 34 35 36 37 38 39 40 41 42 43 44 45 46 47 48 49 50
000
ASUS43 KIND 231959
RWRIN

WEATHER ROUNDUP FOR INDIANA
NATIONAL WEATHER SERVICE INDIANAPOLIS IN
400 PM EDT SUN APR 23 2017

NOTE: "FAIR" INDICATES FEW OR NO CLOUDS BELOW 12,000 FEET WITH NO
SIGNIFICANT WEATHER AND/OR OBSTRUCTIONS TO VISIBILITY.

* - STATION DOES NOT REPORT WEATHER SUCH AS PRECIPITATION OR FOG.

+ - STATION NOT QUALITY CONTROLLED BY THE NATIONAL WEATHER SERVICE.
    USE DATA WITH CAUTION...ESPECIALLY DEWPOINT AND RELATIVE
    HUMIDITY OBSERVATIONS.

INZ001>003-010>013-019-020-232100-
NORTHWEST INDIANA

CITY           SKY/WX    TMP DP  RH WIND       PRES   REMARKS
GARY /AIRPORT/ SUNNY     66  14  13 NE7       30.07F
KNOX *+        SUNNY    N/A N/A N/A NE7       30.05F
MONTICELLO +   SUNNY     68  29  23 NE7       30.04S

$$

LMZ046-743>745-232100-
SOUTHERN LAKE MICHIGAN

STATION/POSITION TIME  TEMP    WIND        PRES    WAVE
                       AIR SEA DIR/SP/G            HT
                 (UTC) (F)     (DEG/KT/KT) (MB)    (FT)
BURNS HARBOR     1940   56      60/  3/  4 1019.0F
MICHIGAN CITY    1930   51      10/  1/  2   N/A

$$

INZ004-005-014>016-021>024-232100-
NORTH CENTRAL INDIANA

CITY           SKY/WX    TMP DP  RH WIND       PRES   REMARKS
GOSHEN         SUNNY     68  32  26 E9        30.05F
SOUTH BEND     SUNNY     67  32  27 VRB6      30.06F

$$

INZ006>009-017-018-025>027-232100-
NORTHEAST INDIANA

CITY           SKY/WX    TMP DP  RH WIND       PRES   REMARKS
ANGOLA *+      SUNNY     66  59  77 CALM      30.05F
FORT WAYNE     MOSUNNY   67  29  24 NE12      30.05F
KENDALLVILLE + SUNNY     67  33  27 NE6       30.05F

$$

INZ028-029-035-036-043>045-051>053-232100-
WEST CENTRAL INDIANA

CITY           SKY/WX    TMP DP  RH WIND       PRES   REMARKS
CRAWFORDSVL +  SUNNY     67  31  26 NE17G23   30.02F
LAFAYETTE      SUNNY     66  37  34 E9        30.04F
TERRE HAUTE    SUNNY     71  32  23 NE15G21   29.99F

$$

INZ030>032-037>040-046>048-054>057-064-065-232100-
CENTRAL INDIANA

CITY           SKY/WX    TMP DP  RH WIND       PRES   REMARKS
COLUMBUS       SUNNY     66  27  22 NE14G22   29.97F
INDIANAPOLIS   MOSUNNY   69  35  28 NE14G22   29.99F
-EAGLE CREEK   SUNNY     69  32  25 NE13G20   30.00F
KOKOMO +       SUNNY     67  32  27 NE14      30.05F
SHELBYVILLE    MOSUNNY   72  29  20 NE18G25   29.98F

$$

INZ033-034-041-042-049-050-058-059-232100-
EAST CENTRAL INDIANA

CITY           SKY/WX    TMP DP  RH WIND       PRES   REMARKS
MUNCIE         CLOUDY    69  30  23 NE16G23   30.01F

$$

INZ060-061-067>069-081>083-085>088-232100-
SOUTHWEST INDIANA

CITY           SKY/WX    TMP DP  RH WIND       PRES   REMARKS
EVANSVILLE     SUNNY     71  39  31 NE13G28   29.92F
HUNTINGBURG *+ MOSUNNY   67  39  35 NE21G26   29.92F

$$

INZ062-063-066-070>080-084-089>092-232100-
SOUTH CENTRAL AND SOUTHEAST INDIANA

CITY           SKY/WX    TMP DP  RH WIND       PRES   REMARKS
BLOOMINGTON    SUNNY     70  32  24 NE12G21   29.96F
MADISON *+     CLOUDY    61  32  33 NE12      29.97F
SEYMOUR +      PTSUNNY   68  37  32 NE20      29.95F

$$




USA.gov is the U.S. government's official web portal to all federal, state and local government web resources and services.